STARLINK-1785 (47124 NORAD) Tracking and Keplerian Element Data
This shows tracking and keplerian element data for the satellite.
Feedback or suggestion? Click here.
Element | Value |
Catalog | 47124 |
Name | STARLINK-1785 |
Epoch Orbit | 181 |
Epoch Day | 20.91667824 |
Epoch Year | 2021 |
RAAN | 78.4631 |
Inclination | 53.0423 |
Eccentricity | 0.0001352 |
Argument of Perigee | 60.7077 |
Mean Anonmoly | 317.8193 |
Mean Motion | 15.16700251 |
Decay Rate | -0.01064709 |
L1 | 1 47124U 20088C 21020.91667824 -.01064709 00000-0 -57907-1 0 9992 |
L2 | 2 47124 53.0423 78.4631 0001352 60.7077 317.8193 15.16700251 1814 |
Live tracking and technical data element details for STARLINK-1785 (NORAD 47124). STARLINK-1785 can be tracked NOW for your location showing map with azimuth and elevation plus other details from your city location.
Track the satellite on the map from your city or location and see movement details for azimuth, elevation, latitude, longitude, range, height, and movement on the map or in text.
IsCatalogInMostPopularTable: catalog: 47124, numindb: 17
Update: records affected: 1
GetName: 47124 STARLINK-1785
Hit Count: updated at: Sat, 23 Jan 2021 18:54:34 GMT